sat.trackr.live / text

‹ back to catalog

STARLINK-33699

NORAD 63328 · 2025-057X

PAYLOAD ACTIVE UNKNOWN

§ Identity

Operator
Country
US
Launch date
2025-03-18
Launch site
AFETR
Launch vehicle
Mass (kg)
RCS (m²)

Purposes: comms

External: N2YO · Heavens-Above · Gunter

§ Orbital elements

Epoch: 2026-09-20T07:44:06.565344Z

Period
94.27 min
Inclination
43.0036°
Eccentricity
0.0001056
Mean motion
15.27589246 rev/d
Perigee alt
482.3 km
Apogee alt
483.7 km
Semi-major
6,861.2 km
B*
4.3251e-4
RAAN
3.9066°
Arg perigee
280.3339°
Mean anomaly
79.7393°
Rev number
8,559

§ Raw data

STARLINK-336991 63328U 25057X   26263.32229821  .00011662  00000+0  43251-3 0  99922 63328  43.0036   3.9066 0001056 280.3339  79.7393 15.27589246 85598

JSON: /api/v1/satellites/63328 · /tle

For live sub-satellite position, see the globe view (requires WebGL).

§ Visibility from observer

Set your observer location to see the next 7 days of passes ≥ 10°. The values pass through the URL so the page stays shareable.

No JS? Fill the form by hand. The geolocation button needs JavaScript.